Lid_Strength_Index
10 10 11 11 11 11 10 10 10 9 9 8 7 7 6 5 3 4 3 3 4 5 5 4 6 6 6 6 5 5 3 4 8 12 11 13 14 14 13 12 12 11 10
10 10 11 11 11 10 10 11 9 9 8 8 8 7 7 6 5 4 6 6 6 7 8 8 8 7 7 8 7 8 7 7 8 12 13 14 14 13 12 12 12 11 10
10 10 10 11 11 11 11 10 10 9 8 8 8 8 8 8 8 8 8 8 9 9 8 8 8 7 8 9 9 10 9 10 9 12 14 13 14 13 13 12 12 11 11
10 10 10 11 11 11 11 11 10 9 9 8 9 8 8 8 9 9 9 9 10 10 10 9 9 9 9 10 11 10 10 11 11 12 13 13 13 14 12 11 11 11 12
11 11 11 11 11 11 11 11 10 10 10 9 10 9 9 9 9 9 10 9 10 11 11 11 10 11 12 11 11 11 10 10 11 12 13 13 13 13 13 12 12 12 12
12 11 11 11 11 12 12 11 11 11 11 10 10 10 10 9 10 9 8 10 11 10 10 10 10 11 11 11 11 11 10 10 11 11 12 13 13 13 12 12 12 11 11
11 11 12 12 12 12 12 11 12 12 11 11 11 10 10 10 10 10 10 9 9 10 11 11 12 11 11 12 12 12 12 11 11 11 12 12 12 12 12 13 13 12 13
12 11 11 11 12 12 12 12 12 12 12 12 11 11 10 11 10 11 11 10 10 10 10 10 11 11 11 11 12 13 12 12 12 12 12 11 11 12 12 12 13 14 14
12 12 13 12 12 12 12 12 12 12 11 12 12 11 11 11 11 11 11 11 11 12 11 11 11 11 12 11 12 13 13 13 11 11 11 11 12 13 13 13 13 12 13
13 13 13 13 13 12 13 13 12 13 13 13 13 12 13 11 11 12 11 11 12 13 12 12 13 11 12 12 12 13 13 13 13 13 13 14 14 14 14 13 13 12 13
13 13 14 14 14 13 13 13 13 13 13 13 13 13 12 12 11 12 12 11 12 12 12 12 12 12 12 12 12 12 12 12 13 13 14 14 14 15 15 15 15 13 13
14 14 14 15 14 14 14 14 14 14 14 14 13 13 13 13 12 11 11 12 11 11 12 11 11 11 11 11 12 12 12 13 13 13 14 14 14 15 16 16 17 17 16
17 16 15 15 15 14 14 14 14 14 13 14 14 13 13 13 12 12 11 11 12 12 12 11 11 11 11 11 12 12 13 13 13 13 13 14 14 16 17 16 16 17 16
17 17 17 17 16 15 14 14 13 13 14 14 14 14 13 13 12 12 12 11 13 12 12 12 12 12 12 12 13 13 13 12 12 13 13 14 16 16 15 15 14 14 14
16 16 16 15 16 16 16 14 14 13 13 12 13 13 14 13 13 12 12 12 12 12 12 13 14 14 14 14 13 14 14 14 14 13 14 15 15 15 15 16 15 15 14
15 15 15 15 15 15 15 14 14 14 14 13 13 14 13 14 14 13 12 12 12 12 14 15 16 16 16 15 15 15 14 14 14 14 14 14 15 16 16 17 16 15 14
15 14 15 16 15 15 16 15 15 14 14 14 13 13 13 13 13 13 12 12 12 13 15 16 15 15 16 15 15 14 14 14 14 14 15 15 15 15 17 16 16 16 16
15 14 14 14 14 14 14 14 14 14 15 15 14 14 13 12 12 12 12 12 13 13 14 14 15 14 15 15 15 15 14 14 15 15 15 15 16 16 17 16 16 16 15
15 14 14 14 14 14 14 14 14 14 14 14 15 14 14 13 12 12 11 12 13 13 13 13 13 14 14 15 15 16 16 16 15 15 16 16 16 16 16 16 16 18 17
15 15 14 14 14 14 14 14 14 14 14 14 14 14 14 14 14 14 13 12 12 12 12 12 11 12 13 14 14 15 16 16 16 15 15 15 16 16 16 17 17 17 18
15 15 16 14 14 14 14 14 14 14 14 14 14 13 14 14 13 13 13 14 14 13 12 12 12 12 12 14 14 15 16 16 16 16 15 14 15 16 16 16 16 17 16
15 15 15 15 14 14 14 14 14 14 14 14 13 13 13 15 14 13 13 13 12 13 13 13 13 13 12 14 15 15 16 16 15 16 15 16 16 16 16 17 17 17 17
15 15 15 15 15 15 15 14 14 14 14 14 13 13 14 14 14 14 13 13 12 12 12 12 13 13 14 15 15 15 16 15 14 15 15 16 17 17 16 17 17 17 18
15 15 15 15 15 15 15 15 15 15 14 14 13 13 13 13 13 13 13 12 12 12 12 12 12 13 14 15 15 16 16 15 15 15 15 16 16 16 16 17 17 17 17
16 16 16 16 16 16 16 16 15 14 14 14 14 13 12 12 13 12 12 12 13 12 13 13 13 13 14 14 15 16 16 16 16 16 17 16 17 17 17 17 17 17 17
17 16 16 16 16 16 16 15 15 15 15 14 14 13 12 12 12 12 12 12 12 13 13 12 13 13 14 14 14 15 16 17 17 17 16 17 17 17 17 17 17 18 18